STARLINK-34647

Last updated on Tue Aug 26 2025 00:02:05 GMT+0000 (Coordinated Universal Time)

1 64904U 25157A 25237.58336806 -.00001974 00000+0 -39397-4 0 9998 2 64904 53.1607 187.9035 0001193 82.5461 123.7314 15.39612661 6030

Satellite not in orbit

STARLINK-34647